Wind_Speed
6 3 3 6 8 11 13 14 15 17 17 17 15 15 15 14 16 16 16 14 16 23 20 20 18 18 18 19 20 20 19 19 20 21 22 23 24 22 23 23 21 22 22
6 3 3 2 5 7 9 12 13 15 18 16 18 17 17 15 13 14 18 17 15 20 25 21 19 17 18 20 22 22 21 20 20 21 22 22 24 25 24 24 23 23 24
5 4 6 6 9 3 4 5 6 12 12 12 15 18 19 18 18 16 16 18 15 18 19 24 19 22 21 23 24 23 22 21 21 21 21 22 22 23 24 25 24 23 24
1 3 4 4 7 7 6 9 9 12 13 16 19 19 17 17 16 17 17 14 14 15 18 25 22 22 27 26 23 25 23 24 23 22 21 26 25 25 25 25 24 23 24
3 3 4 7 8 10 7 9 12 14 17 17 19 19 20 16 14 16 15 14 14 14 14 14 25 21 25 28 24 23 26 25 24 24 26 29 27 27 27 26 26 25 24
6 6 6 8 9 11 9 11 14 14 15 17 17 18 18 13 7 9 9 10 13 15 16 16 18 22 25 27 30 28 27 31 22 29 28 30 28 27 29 28 27 25 26
9 8 8 10 12 13 14 14 16 16 18 14 12 20 15 5 6 13 6 8 12 15 18 19 18 20 23 25 23 26 24 26 29 30 28 26 29 27 29 30 27 27 28
11 12 13 14 15 14 14 14 14 15 14 11 5 5 4 9 3 11 5 6 12 9 13 17 19 23 23 27 25 25 23 24 23 23 26 26 27 28 28 26 25 27 28
15 17 17 17 15 15 16 14 14 14 16 19 5 3 2 2 8 5 5 5 17 12 12 13 16 19 23 22 25 23 23 18 20 24 23 21 23 27 26 26 25 27 28
18 15 15 15 15 14 14 12 12 12 14 18 14 9 8 7 2 4 7 12 19 15 14 11 8 11 16 15 14 17 17 14 16 17 16 18 21 23 24 23 25 27 28
18 17 15 13 12 13 11 11 9 9 10 14 13 12 6 4 4 4 4 12 20 15 15 12 6 6 6 6 7 13 14 9 9 10 12 15 17 19 22 22 22 26 28
12 11 8 9 13 13 8 8 9 7 9 13 10 8 5 1 3 2 2 4 7 13 9 15 16 11 7 7 9 7 8 9 9 14 14 14 14 16 17 18 22 23 26
8 6 5 9 3 7 13 7 8 6 11 7 4 4 4 2 3 3 3 4 2 6 4 11 22 21 11 6 6 8 9 10 11 12 13 11 12 12 15 18 19 21 22
9 6 11 12 14 13 8 10 9 8 5 4 5 5 5 6 5 5 3 2 2 3 3 9 9 16 17 12 9 9 8 10 13 14 13 12 11 11 11 14 17 19 21
7 7 7 9 6 9 8 7 8 7 5 7 8 7 7 7 6 4 4 2 1 1 2 4 10 16 14 10 10 7 7 9 11 12 15 13 12 12 11 12 15 17 18
6 6 6 5 2 3 5 9 13 11 11 12 11 10 10 9 8 8 8 6 3 2 1 4 11 13 11 6 5 6 8 10 13 14 13 12 12 15 14 13 13 14 15
1 3 6 7 10 11 12 12 13 11 12 15 16 15 15 12 12 11 8 7 7 4 2 5 9 11 13 12 10 12 13 14 16 17 18 17 16 15 11 9 9 10 10
7 8 10 11 13 14 14 15 17 17 20 22 20 20 21 19 20 18 16 13 10 8 5 8 11 15 16 14 13 13 14 14 14 16 16 16 15 14 12 10 9 8 9
9 10 10 12 14 16 18 17 16 17 18 18 18 21 23 21 21 19 21 23 22 18 16 14 11 15 15 15 15 13 12 11 14 16 13 13 14 14 14 14 12 12 12
11 12 12 13 14 14 15 15 16 15 15 16 17 18 19 23 23 22 21 20 19 21 21 20 17 16 15 18 17 20 21 17 14 19 16 14 11 9 9 10 13 13 11
17 16 16 19 19 17 12 12 12 14 15 15 16 17 16 17 19 19 21 20 21 21 20 21 21 20 18 20 19 18 18 17 8 17 14 14 15 14 11 9 12 13 12
19 18 20 20 18 16 13 11 12 14 15 16 17 18 17 14 12 14 15 16 18 20 20 20 18 13 19 18 19 20 21 11 8 18 14 10 16 14 15 9 12 15 16
21 19 19 19 19 16 13 12 12 14 16 16 17 18 18 16 12 13 13 14 15 16 17 17 16 15 15 16 18 20 23 14 6 16 15 11 19 18 14 9 12 17 15
21 21 20 19 19 17 15 14 14 16 18 19 18 19 20 21 20 16 11 11 14 15 16 14 11 13 13 14 17 17 15 14 8 9 15 8 19 16 14 12 14 16 17
20 20 19 18 18 18 14 17 22 22 21 19 16 16 16 16 15 16 19 20 18 16 15 15 14 14 13 8 12 15 16 14 9 7 12 10 11 15 7 10 14 18 21
19 18 17 15 17 19 15 16 16 17 16 14 12 12 13 10 9 12 14 14 15 14 13 10 9 11 13 12 14 16 16 13 9 7 9 13 7 9 7 11 20 19 26
Wind_Direction
170 180 264 275 278 277 280 286 288 292 296 296 292 292 296 298 298 296 290 272 268 254 259 255 260 255 247 250 248 243 240 238 237 239 235 231 231 227 220 216 214 213 211
166 137 94 20 333 280 293 282 279 280 289 296 294 294 299 303 290 291 289 274 264 261 252 257 252 256 259 255 252 246 243 241 242 243 239 237 233 230 227 222 218 217 216
145 118 50 63 31 328 314 328 309 291 294 310 311 306 299 299 298 294 303 282 276 257 251 245 243 244 253 249 249 248 248 245 244 246 248 246 240 234 226 226 225 221 220
107 42 27 30 13 359 311 322 336 335 314 320 317 313 310 311 301 296 298 281 275 243 257 252 254 255 239 248 255 251 247 244 240 236 235 247 244 239 231 229 228 226 225
325 320 349 348 342 339 330 330 327 325 326 323 322 319 318 316 305 296 296 284 269 271 271 291 254 261 246 247 252 251 251 253 243 241 235 232 242 244 238 231 228 227 221
288 294 318 328 327 328 325 331 319 323 321 321 323 325 325 320 341 329 302 287 262 272 274 280 268 261 257 253 261 261 249 248 259 243 243 238 236 241 243 236 231 231 223
272 293 311 313 311 312 318 315 317 322 320 330 333 341 332 303 326 360 339 316 293 280 273 279 267 270 265 262 270 258 262 260 257 246 244 244 242 241 239 242 237 233 229
273 296 304 299 300 303 305 310 314 318 319 329 323 340 344 326 341 341 353 30 6 344 287 280 271 272 277 271 272 269 268 263 263 260 256 246 248 247 247 240 238 242 235
278 286 286 291 291 291 295 303 311 313 311 320 310 305 337 293 328 340 356 5 7 0 353 344 283 279 290 287 283 284 286 290 279 273 275 251 252 249 254 249 242 238 237
280 279 281 284 287 284 288 296 303 307 302 306 321 308 249 283 255 325 331 328 347 4 353 341 302 288 305 304 297 293 301 284 292 283 269 257 259 250 250 253 249 242 238
272 281 282 275 281 287 283 283 294 312 321 313 312 306 305 303 267 221 292 325 335 359 358 8 359 340 354 342 320 321 319 314 285 307 273 268 264 254 247 251 250 245 240
271 273 279 276 283 294 276 308 320 335 325 304 300 304 327 309 289 277 267 299 306 348 6 42 35 7 323 314 325 337 354 337 302 322 289 294 289 275 260 254 252 249 244
290 275 292 271 326 318 293 332 347 343 336 341 331 15 23 19 333 303 282 305 315 329 359 60 38 30 20 352 345 353 345 344 341 334 328 303 298 291 270 263 262 255 245
279 264 284 296 272 317 326 324 355 37 44 39 36 52 59 51 40 17 352 317 327 321 332 15 22 25 20 16 4 352 352 333 320 310 308 308 296 291 293 283 277 272 264
281 300 303 306 292 321 12 59 69 82 82 81 77 72 58 47 35 33 30 9 207 288 294 7 10 6 10 19 31 19 359 345 333 321 308 294 287 281 276 269 266 269 272
297 311 339 359 21 51 70 96 95 89 78 70 62 56 52 47 46 47 48 48 37 253 273 8 16 1 4 29 32 46 39 12 5 359 346 330 306 286 279 275 271 270 271
116 61 81 100 102 103 101 95 84 77 66 73 73 70 67 63 62 57 54 51 51 37 36 24 36 36 42 49 51 53 52 43 33 29 24 21 16 10 359 343 321 293 282
135 123 122 114 102 100 101 98 89 83 86 82 79 75 70 73 70 66 65 63 62 56 82 65 41 39 44 43 47 46 45 43 43 34 32 30 30 28 23 13 359 347 343
138 130 127 111 102 101 95 87 88 91 89 84 77 73 68 70 65 63 63 65 67 70 75 76 64 60 52 41 39 38 30 33 41 36 26 27 32 42 37 29 31 31 33
136 128 119 114 112 110 106 102 97 92 93 83 79 76 75 70 67 65 65 64 68 69 69 68 62 52 39 33 31 22 16 24 42 35 39 39 29 24 31 40 26 14 10
132 127 124 115 113 112 109 111 105 94 96 93 86 79 77 74 65 61 62 66 67 68 65 60 55 47 35 25 16 9 9 10 22 15 18 27 31 36 27 20 14 17 16
135 129 120 118 114 108 110 109 108 106 101 96 88 82 79 77 73 65 68 69 65 61 59 56 48 40 33 27 27 23 14 358 358 4 8 19 16 15 14 23 22 21 15
138 134 129 126 117 108 106 110 111 110 105 98 92 90 85 74 80 81 76 72 67 59 51 44 42 37 33 28 24 21 25 33 22 14 7 5 8 15 16 36 23 14 18
141 136 135 133 126 117 110 110 112 107 103 100 95 85 76 67 66 70 77 79 63 53 42 40 37 31 24 24 21 13 17 18 22 18 20 10 8 12 27 29 27 30 19
146 146 147 151 148 135 121 121 116 110 105 99 86 71 61 53 54 65 71 77 72 70 59 66 61 50 41 32 17 12 13 5 352 341 7 356 358 354 355 18 17 16 14
155 155 154 161 169 153 140 139 131 120 107 95 86 71 49 52 55 72 75 73 64 56 47 45 43 45 43 35 25 33 20 4 353 325 4 350 348 8 333 355 0 5 3
Height
849 850 850 849 849 850 849 849 849 849 847 845 845 843 842 841 840 838 837 836 835 835 836 835 837 840 841 843 844 844 844 844 845 846 847 849 851 853 855 856 859 862 864
850 850 850 850 849 849 850 849 848 847 846 844 842 841 840 839 837 835 834 834 832 831 831 832 833 836 836 837 838 840 839 841 842 844 844 845 846 849 852 853 856 858 861
851 852 852 851 850 850 849 849 848 846 845 843 841 839 837 836 834 832 831 830 829 828 826 826 828 830 833 833 833 835 835 834 836 840 841 841 843 844 847 849 852 855 857
853 853 852 851 850 850 849 848 847 846 844 840 838 836 834 832 830 828 827 826 825 825 825 824 824 823 825 829 830 831 830 830 832 835 833 838 839 841 843 844 848 851 854
853 852 851 850 849 849 847 846 845 844 841 839 836 833 831 829 827 825 823 822 822 823 823 821 822 822 823 825 826 826 827 827 828 831 829 832 834 836 838 840 842 846 849
851 850 849 849 848 848 847 845 844 842 840 837 835 832 829 826 825 823 822 822 822 822 821 821 821 820 821 823 823 822 822 822 823 823 826 827 829 830 834 836 837 841 844
850 849 848 848 847 846 846 844 842 840 837 836 833 830 827 826 825 825 823 822 821 820 820 819 820 819 818 818 818 818 818 818 820 819 820 822 824 828 816 831 832 836 838
849 848 847 846 846 845 844 842 841 839 836 835 834 832 831 826 824 824 823 823 822 819 818 817 817 817 816 815 815 814 815 817 817 817 812 818 820 822 824 826 825 831 834
847 846 844 843 842 841 839 839 838 838 836 834 834 834 835 837 829 824 824 824 822 819 817 814 813 814 813 812 811 811 811 814 814 814 813 815 817 818 819 821 822 826 828
844 842 841 839 838 837 836 836 835 835 835 833 833 833 833 833 833 831 823 823 822 820 817 813 810 810 810 809 810 809 809 813 812 810 810 812 813 814 815 816 817 820 823
840 837 836 835 835 835 834 833 832 832 833 832 832 832 832 832 831 831 830 823 820 819 816 812 810 810 810 810 809 810 810 811 812 810 810 811 808 809 810 811 812 813 816
835 833 832 833 834 833 834 833 831 830 831 831 831 831 831 832 830 829 828 825 823 819 818 815 812 811 810 811 810 810 810 810 810 810 810 810 809 809 807 808 808 809 811
830 831 832 832 833 833 833 832 828 827 829 830 829 830 830 829 829 828 827 825 823 819 818 817 815 812 810 812 811 811 810 810 809 809 808 807 807 806 805 805 806 806 806
830 830 830 830 830 831 830 830 826 827 829 830 830 830 829 828 828 828 826 826 825 822 819 818 817 815 814 812 811 811 810 809 808 807 806 805 805 804 804 804 805 805 804
829 828 827 827 827 827 828 828 827 830 830 830 829 829 829 828 827 827 825 825 824 826 823 819 818 818 816 815 813 812 810 808 807 806 804 803 802 802 802 802 802 802 802
826 826 825 825 828 828 829 828 830 832 831 831 830 830 830 829 829 826 826 825 824 824 824 822 822 820 817 815 813 811 809 808 807 806 804 802 801 800 799 799 798 799 800
827 826 827 830 830 830 831 832 833 834 832 833 832 831 831 830 827 826 826 825 825 824 824 824 823 821 819 817 815 813 811 809 808 808 805 803 802 801 799 799 798 797 797
830 830 832 833 833 833 834 834 835 836 835 835 836 834 832 831 829 829 827 826 825 825 824 825 824 823 822 820 819 816 814 812 810 810 806 806 804 803 801 800 798 798 798
832 833 834 835 835 835 835 836 838 839 840 840 840 838 838 836 836 836 834 831 829 828 827 827 827 827 825 823 821 819 817 815 813 812 809 809 807 805 804 804 802 800 800
833 835 836 836 837 838 839 842 842 843 844 844 843 843 843 842 841 839 836 835 834 832 831 830 830 830 829 827 825 822 819 817 815 813 812 809 808 807 806 806 805 804 802
836 838 839 840 841 842 844 844 845 846 846 846 847 847 847 847 846 844 843 841 838 837 835 834 833 833 833 831 829 827 823 820 818 816 814 813 811 809 808 808 807 804 802
839 842 842 843 845 846 847 848 848 848 849 850 850 850 850 849 848 847 845 844 842 841 839 838 838 837 836 835 833 830 827 824 822 821 817 815 814 812 810 807 807 806 804
842 843 845 847 848 850 851 851 852 852 852 853 854 854 852 850 848 847 848 847 845 843 843 843 841 839 838 836 833 831 829 826 825 822 818 816 814 811 811 810 808 806 804
843 845 847 849 851 853 854 854 854 855 855 857 858 857 855 854 852 850 848 848 848 847 845 843 842 842 840 838 836 834 830 827 825 823 821 820 817 815 813 811 809 807 805
845 846 848 849 852 854 857 857 857 857 858 859 860 859 858 856 854 852 850 849 849 849 848 845 843 841 838 836 835 832 830 829 828 825 823 820 818 815 814 812 810 808 805
846 849 849 851 853 856 860 861 861 861 860 860 860 859 859 857 856 855 853 852 850 850 848 845 844 843 840 838 836 833 832 830 829 826 823 822 819 817 815 813 811 808 805